User: anonymous   Login
Location: Unspecified
(0.0000°N, 0.0000°E)
Time: 17:02:43
(UTC+00:00)
Language:

APRIZESAT 9 - Orbit

View from above orbital plane
View from above orbital plane
View from above satellite
View from above satellite

Ground track
Ground track

The orbit data is extracted from the following two-line orbital elements,

1 40018U 14033J   21337.04847654  .00000127  00000-0  28024-4 0  9998
2 40018  97.7001 153.4010 0072483 123.5747 237.2408 14.70102258399924
Epoch (UTC): 03 December 2021 01:09:48
Eccentricity: 0.0072483
inclination: 97.7001°
perigee height: 610 km
apogee height: 712 km
right ascension of ascending node: 153.4010°
argument of perigee: 123.5747°
revolutions per day: 14.70102258
mean anomaly at epoch: 237.2408°
orbit number at epoch: 39992

The dashed part of the orbit path shows where the satellite is in the earth's shadow,  

DLR